Tracking 19575 objects as of 19-Feb-2019
HD Live streaming from Space Station
objects crossing your sky now

SL-18 DEB

Track SL-18 DEB now!
10-day predictions


NORAD ID: 28284
Int'l Code: 1993-014M
Perigee: 625.3 km
Apogee: 761.5 km
Inclination: 75.7 °
Period: 98.5 minutes
Semi major axis: 7064 km
RCS: 0.0056 m2 (small)
Launch date: March 25, 1993
Source: Commonwealth of Independent States (former USSR) (CIS)
Launch site: PLESETSK MISSILE AND SPACE COMPLEX (PKMTR)

Note: This is SATELLITE DEBRIS
aabbcc
Your satellite tracking list
Your tracking list is empty




NASA's NSSDC Master Catalog

Two Line Element Set (TLE):
1 28284U 93014M   19042.20683418  .00001763  00000-0  33133-3 0  9992
2 28284  75.7478 359.9623 0096394  22.2321 338.2991 14.62138164788211
Source of the keplerian elements: AFSPC